Weather History for 78762 - November, 2012

Change the Weather History Date:

Thursday, November 1, 2012

  Actual Average Record
Temperature  
Mean Temperature 75 °F -  
Max Temperature 84 °F 78 °F - ()
Min Temperature 66 °F 64 °F - ()
Cooling Degree Days 10    
Growing Degree Days 25 (Base 50)    
Moisture  
Dew Point 64 °F    
Average Humidity 75    
Maximum Humidity 94    
Minimum Humidity 48    
Precipitation  
Precipitation 0.01 in 0.17 in - ()
Sea Level Pressure  
Sea Level Pressure 29.97 in    
Wind  
Wind Speed 6 mph ()    
Max Wind Speed 10 mph    
Max Gust Speed -    
Visibility 7.9 miles    
Events Rain    
T = Trace of Precipitation, MM = Missing Value Source: Averaged Metar Reports

Daily Weather History Graph

Daily Weather History Graph

Search for Another Location

Airport or City:

Trip Planner

Search our weather history database for the weather conditions in past years. The results will help you decide how hot, cold, wet, or windy it might be!

Date:

Astronomy

Nov. 01, 2012 Rise Set
Actual Time 5:27 AM CST 5:13 PM CST
Civil Twilight 5:05 AM CST 5:34 PM CST
Nautical Twilight 4:40 AM CST 5:59 PM CST
Astronomical Twilight 4:15 AM CST 6:24 PM CST
Moon 7:31 PM CST (11/1) 7:37 AM CST (11/1)
Length of Visible Light 12h 29m
Length of Day
11h 45m
Waning Gibbous, 92% of the Moon is Illuminated
Nov 1
Waning Gibbous
Nov 6
Last Quarter
Nov 13
New
Nov 20
First Quarter
Nov 28
Full

Hourly Weather History & Observations

Time (CST) Temp. Heat Index Dew Point Humidity Pressure Visibility Wind Dir Wind Speed Gust Speed Precip Events Conditions
12:00 AM 69 °F - 61 °F 68% 29.90 in 12 mi NE 8.1 mph - -   Clear
12:00 AM 69.8 °F - 60.8 °F 73% 30.03 in - NE 8.1 mph - N/A   Clear
1:00 AM 68.0 °F - 60.8 °F 78% 30.01 in - NE 5.8 mph - N/A   Clear
2:00 AM 69.8 °F - 60.8 °F 73% 29.97 in - East 6.9 mph - N/A   Clear
3:00 AM 68 °F - 60 °F 69% 29.86 in 12 mi NE 3.5 mph - -   Clear
3:00 AM 68.0 °F - 60.8 °F 78% 29.98 in - NE 3.5 mph - N/A   Clear
4:00 AM 68.0 °F - 60.8 °F 78% 29.99 in - Calm Calm - N/A   Clear
5:00 AM 68.0 °F - 60.8 °F 78% 30.00 in 6.2 mi ENE 2.3 mph - N/A   Scattered Clouds
6:00 AM 69 °F - 60 °F 66% 29.92 in 12 mi ENE 3.5 mph - -   Scattered Clouds
6:00 AM 68.0 °F - 60.8 °F 78% 30.02 in 6.2 mi ENE 3.5 mph - N/A   Scattered Clouds
7:00 AM 71.6 °F - 60.8 °F 69% 30.03 in 6.2 mi ESE 10.4 mph - N/A   Partly Cloudy
8:00 AM 75.2 °F - 60.8 °F 61% 30.04 in 6.2 mi East 8.1 mph - N/A   Partly Cloudy
9:00 AM 78 °F - 62 °F 48% 29.88 in 12 mi ESE 9.2 mph - -   Scattered Clouds
10:00 AM 80.6 °F 81.8 °F 62.6 °F 54% 30.04 in 6.2 mi ESE 9.2 mph - N/A   Partly Cloudy
11:00 AM 82.4 °F 82.9 °F 60.8 °F 48% 30.02 in 6.2 mi ESE 9.2 mph - N/A   Scattered Clouds
12:00 PM 78 °F - 63 °F 51% 29.83 in 9 mi WSW 10.4 mph - -   Overcast
12:00 PM 78.8 °F - 62.6 °F 57% 30.00 in 6.2 mi WSW 10.4 mph - N/A   Mostly Cloudy
1:00 PM 75.2 °F - 66.2 °F 73% 29.98 in 6.2 mi WNW 6.9 mph - N/A   Scattered Clouds
2:00 PM 78.8 °F - 68.0 °F 69% 29.96 in 6.2 mi SW 6.9 mph - N/A   Partly Cloudy
2:45 PM 75.2 °F - 68.0 °F 78% 29.95 in 6.2 mi SW 9.2 mph - N/A Rain Rain Showers
3:00 PM 73 °F - 67 °F 77% 29.81 in 12 mi WSW 10.4 mph - - Rain Heavy Rain Showers
3:00 PM 73.4 °F - 68.0 °F 83% 29.96 in 6.2 mi WSW 10.4 mph - N/A Rain Rain Showers
4:00 PM 71.6 °F - 68.0 °F 88% 29.97 in 6.2 mi SW 6.9 mph - N/A   Mostly Cloudy
5:00 PM 69.8 °F - 66.2 °F 88% 29.99 in 6.2 mi SW 2.3 mph - N/A   Mostly Cloudy
6:00 PM 69 °F - 67 °F 92% 29.86 in 12 mi SSE 1.2 mph - -   Partly Cloudy
6:00 PM 69.8 °F - 68.0 °F 94% 30.00 in 6.2 mi SSE 1.2 mph - N/A   Mostly Cloudy
7:00 PM 68.0 °F - 66.2 °F 94% 30.00 in 6.2 mi West 3.5 mph - N/A   Scattered Clouds
8:00 PM 68.0 °F - 66.2 °F 94% 30.04 in 6.2 mi NW 3.5 mph - N/A   Mostly Cloudy
9:00 PM 68 °F - 65 °F 88% 29.90 in 12 mi East 2.3 mph - -   Scattered Clouds
9:00 PM 68.0 °F - 66.2 °F 94% 30.06 in 6.2 mi East 2.3 mph - N/A   Scattered Clouds
10:00 PM 68.0 °F - 64.4 °F 88% 30.05 in - NE 3.5 mph - N/A   Clear
11:00 PM 69.8 °F - 62.6 °F 78% 30.05 in - NE 9.2 mph - N/A   Clear